Theta_e
333 329 328 326 325 322 321 322 328 325 333 337 332 329 327 328 328 329 329 327 329 328 325 326 334 338 340 341 341 343 344 345 345 343 339 337 342 344
329 328 326 321 320 320 320 319 319 323 323 329 322 320 320 318 318 316 321 320 322 329 324 321 320 331 333 336 338 340 342 343 344 344 342 341 336 333
324 317 320 321 320 319 319 320 320 321 322 321 320 320 319 319 318 319 320 319 319 318 319 322 317 317 315 324 333 337 337 339 341 342 342 342 339 335
327 324 324 322 322 322 322 322 322 320 320 321 321 320 321 318 318 319 318 319 319 320 319 320 316 316 316 316 316 324 332 336 337 338 339 340 343 340
327 322 323 323 322 322 324 321 323 324 323 321 320 319 318 318 319 318 318 318 319 318 319 319 318 317 317 316 316 315 316 327 331 333 335 336 339 339
327 325 325 322 324 324 326 325 323 323 322 320 320 320 319 318 319 319 318 318 320 321 319 319 319 319 319 319 317 317 317 314 314 314 313 321 330 334
326 325 325 324 323 324 322 321 318 320 321 321 320 320 320 317 320 319 317 320 319 319 318 318 318 319 319 319 318 317 319 316 315 314 313 313 312 319
326 325 327 324 318 320 321 322 321 317 317 317 320 318 321 318 320 319 319 320 319 316 318 319 319 319 319 318 319 320 319 315 316 315 314 311 310 312
326 326 326 324 323 323 324 322 321 321 320 319 319 317 318 319 321 318 318 319 318 314 316 316 319 317 317 318 318 318 317 315 315 316 315 313 310 311
328 328 328 325 324 320 315 318 320 323 322 322 321 321 320 322 322 319 318 318 317 317 318 319 318 317 317 318 318 319 318 317 316 315 316 316 315 313
330 326 321 321 319 313 315 323 323 322 323 321 321 321 320 319 317 318 318 318 318 318 319 319 318 318 318 317 317 319 319 318 316 314 314 314 314 314
325 322 320 318 316 310 321 323 321 321 320 318 315 315 317 319 320 319 321 318 318 320 319 318 317 317 317 317 318 317 316 316 319 317 317 317 314 314
325 321 319 314 311 312 313 313 314 313 315 316 317 318 320 318 317 317 318 319 318 320 320 317 318 317 317 317 316 314 312 312 310 309 310 312 313 314
320 320 319 316 311 313 314 314 313 313 315 317 316 318 319 317 317 319 320 320 320 320 318 316 315 314 314 314 313 312 309 309 309 308 309 310 310 312
323 322 323 318 316 315 314 315 315 316 317 316 316 320 317 317 318 317 316 316 315 314 313 312 310 309 309 311 310 308 309 309 308 308 308 308 307 307
319 319 319 319 316 315 316 319 319 319 319 318 317 319 318 318 317 318 315 313 311 311 311 310 309 309 309 309 309 309 308 308 308 308 308 308 306 306
319 321 321 318 318 319 321 323 321 321 322 321 320 318 318 318 317 316 315 313 312 312 311 311 310 309 309 309 308 308 308 308 308 307 308 307 307 306
320 322 322 322 322 321 321 320 316 316 317 316 318 318 318 317 317 316 315 314 313 313 312 311 310 310 309 309 309 308 308 308 308 307 307 307 307 307
323 323 318 318 318 321 316 314 314 316 317 318 318 318 317 317 316 316 315 315 313 312 311 311 310 309 307 308 308 309 307 307 306 306 306 306 306 306
321 320 316 317 320 315 314 313 313 314 316 317 318 318 317 317 316 316 314 313 311 311 311 310 311 310 308 307 307 308 308 307 306 306 306 306 307 307
314 314 315 318 314 314 313 313 314 316 317 318 318 316 315 316 316 315 313 312 311 311 311 311 311 311 310 308 307 308 308 307 307 306 306 307 307 307
319 321 316 314 313 314 314 314 316 318 316 316 315 314 314 316 315 314 313 312 312 311 311 311 312 312 310 309 308 308 308 308 308 307 309 309 308 307
320 317 313 313 313 313 315 317 317 317 315 314 313 312 314 314 314 313 313 313 312 311 312 312 312 313 313 312 310 308 308 308 307 307 309 309 309 309
Wind_Speed
8 11 13 11 10 11 13 13 7 2 3 5 3 7 6 6 5 4 5 9 8 9 12 11 8 5 6 9 13 16 26 33 41 41 43 41 31 31
5 8 10 14 12 10 12 13 13 8 3 7 8 5 4 7 8 10 6 10 11 6 9 14 11 9 8 7 8 10 14 18 25 35 45 49 49 46
8 10 11 10 11 10 11 12 15 15 11 6 5 7 3 8 11 12 9 13 9 9 10 9 10 10 10 8 8 7 9 11 10 16 19 41 53 51
8 10 9 9 10 12 12 12 11 11 8 4 3 4 6 7 8 9 11 14 11 11 8 7 9 9 11 9 7 6 7 7 10 12 14 17 33 54
7 6 9 10 10 9 11 10 8 8 4 4 5 12 10 10 10 9 10 13 12 12 8 7 9 9 11 11 8 5 5 5 6 7 10 12 11 23
7 7 7 9 9 9 7 6 5 7 9 8 10 7 7 10 10 12 14 12 17 10 6 9 13 17 13 13 11 7 4 5 7 9 10 12 10 10
10 11 10 8 6 7 5 3 1 0 3 4 8 6 7 8 6 8 12 12 12 12 14 11 14 15 21 9 6 7 4 4 7 10 12 10 8 11
13 13 12 10 8 5 4 3 0 1 2 1 1 2 1 4 7 11 10 11 6 11 15 15 14 12 15 16 8 5 5 3 6 11 13 12 11 9
14 11 14 12 9 7 7 5 5 4 4 4 5 7 9 10 10 13 12 12 17 18 16 19 15 15 12 13 11 8 7 7 7 8 10 12 10 11
13 13 12 12 9 9 6 6 4 5 6 10 11 10 13 15 16 17 16 14 15 16 20 9 11 14 14 14 14 13 10 10 11 9 9 10 10 10
13 12 11 10 9 7 9 5 5 3 2 1 5 12 16 23 25 23 24 14 14 17 9 6 6 9 12 17 18 10 9 13 15 16 16 15 13 14
14 12 11 10 9 9 10 8 7 7 8 10 11 15 15 14 9 9 16 20 16 5 5 5 4 8 6 12 8 15 16 12 10 8 11 13 16 17
15 15 14 13 12 10 10 9 8 7 9 11 11 10 3 2 6 5 3 6 15 10 8 6 6 10 6 6 11 18 17 18 19 21 23 19 16 15
15 16 19 16 15 10 12 12 10 11 12 13 16 14 10 1 6 4 3 5 8 9 8 8 3 8 9 6 6 13 19 17 18 18 14 13 15 15
9 15 20 20 14 12 16 17 15 16 17 18 18 13 7 3 3 3 1 1 5 4 3 3 7 8 9 10 12 18 19 21 17 14 19 17 17 20
9 10 13 12 12 15 20 22 21 21 21 20 15 9 5 2 2 2 3 4 5 2 4 6 7 5 8 12 15 20 20 14 21 20 18 18 21 23
10 9 12 14 17 19 23 19 7 11 16 13 10 9 6 1 4 4 3 3 4 7 6 4 5 6 9 11 18 22 22 25 22 21 20 25 27 25
12 13 13 11 16 19 15 1 4 5 5 0 6 6 5 1 4 5 8 9 9 8 6 4 6 11 15 15 10 16 22 23 21 17 18 22 27 30
20 20 15 13 15 14 5 6 6 4 2 5 5 4 2 3 4 7 7 5 5 4 8 6 7 8 3 4 14 17 18 23 23 21 21 21 26 29
20 19 18 13 4 6 4 3 3 5 4 1 2 1 1 5 7 8 6 4 4 7 8 11 13 12 11 6 10 25 21 19 21 21 26 27 29 29
19 20 18 6 6 3 3 3 4 6 4 3 1 3 6 7 8 7 3 4 7 10 12 16 20 19 18 16 11 20 23 19 17 19 23 22 19 18
12 6 12 6 4 4 7 5 4 6 3 1 3 7 4 5 9 5 4 6 10 13 16 19 21 21 22 18 17 18 20 25 22 15 15 18 18 5
15 12 10 8 7 4 4 4 3 2 4 4 6 5 6 10 7 3 7 8 14 19 22 24 26 24 26 25 22 19 22 23 22 21 20 12 14 17
Wind_Direction
102 95 88 84 81 83 79 78 115 89 48 164 114 83 52 61 41 357 346 354 345 18 22 17 10 330 291 273 262 258 250 251 245 242 238 238 234 230
95 125 107 101 97 85 83 77 79 96 105 110 110 112 77 4 15 359 21 10 354 347 6 5 8 8 358 321 289 271 262 265 255 253 236 234 235 237
95 102 97 100 100 95 84 83 82 96 111 132 141 138 54 38 23 19 11 5 357 345 331 346 11 14 6 358 352 306 293 271 267 250 247 243 237 239
116 115 109 112 98 106 103 91 92 85 96 102 103 156 98 44 34 23 6 1 344 340 341 325 342 342 347 358 352 345 340 320 281 280 267 266 246 240
147 145 138 126 116 107 102 98 88 52 81 78 62 124 84 52 39 22 357 357 356 347 351 14 2 335 323 318 327 346 343 336 338 326 305 289 284 249
165 160 155 145 138 125 107 114 78 70 63 57 53 95 59 43 29 12 350 352 357 24 29 351 347 341 329 305 288 304 5 43 20 6 351 328 312 295
173 175 183 165 181 166 149 169 183 165 56 51 57 59 38 14 3 343 342 342 337 318 338 335 339 354 12 331 290 265 279 345 357 354 339 321 307 290
176 190 201 196 196 180 174 175 320 144 120 128 236 345 289 304 288 305 300 314 321 323 339 325 346 358 10 19 355 298 262 308 343 346 346 331 313 296
185 195 203 210 197 210 223 213 214 206 201 214 228 236 251 263 270 282 287 287 288 300 303 305 318 325 345 348 339 328 270 279 304 324 338 344 324 309
183 210 211 181 188 210 218 203 237 239 263 269 261 284 283 282 268 278 294 290 295 300 313 260 287 312 323 327 329 327 300 282 285 290 308 323 327 322
188 182 174 184 203 215 185 215 202 243 297 302 260 276 287 290 289 287 277 255 269 291 312 262 280 304 312 315 321 357 347 293 295 295 301 299 299 301
177 186 212 235 212 192 195 210 219 244 277 299 299 298 323 330 342 331 286 244 239 292 286 304 314 346 320 302 290 328 333 329 313 324 339 305 285 285
199 199 217 217 203 202 221 233 254 283 302 310 323 328 128 355 14 22 350 253 237 260 295 284 281 306 290 289 293 304 311 313 318 315 303 299 304 303
208 212 217 215 216 225 252 263 272 277 283 288 299 303 222 165 38 26 335 279 278 292 286 294 296 299 288 283 286 307 316 320 320 315 319 316 306 303
220 226 216 213 222 248 263 275 278 274 278 280 283 283 220 114 100 19 61 206 289 280 317 322 342 338 321 309 300 308 313 313 310 304 308 305 312 311
175 177 192 225 249 271 279 284 284 280 280 274 276 203 174 168 348 287 183 358 51 344 326 293 315 311 304 301 299 299 310 295 301 303 295 291 303 314
219 221 228 240 257 271 282 295 280 271 270 265 205 182 171 183 350 206 296 304 293 282 297 240 277 308 312 305 303 302 303 309 304 302 290 294 296 306
220 231 244 248 255 272 293 296 82 109 112 297 192 168 158 5 344 267 278 258 260 288 279 267 297 320 322 321 311 292 298 297 295 296 289 288 288 294
228 231 237 251 266 296 122 86 79 72 100 96 140 123 5 325 321 310 294 258 224 296 311 285 306 318 287 285 293 308 291 296 296 291 292 291 283 289
224 232 242 265 252 136 109 72 357 323 307 172 134 130 313 308 308 306 288 233 288 297 306 295 282 289 260 266 293 297 315 292 294 285 293 299 299 301
236 245 247 225 154 100 26 4 354 319 219 196 219 331 311 306 327 325 214 293 328 309 295 301 297 289 284 286 284 287 309 312 299 287 291 286 283 292
260 195 147 130 81 78 88 61 23 133 121 102 334 337 340 338 331 297 295 342 339 306 300 305 304 287 273 267 268 283 299 319 324 311 300 284 264 268
156 138 114 106 104 83 68 63 67 45 351 345 332 341 1 348 345 313 301 329 314 307 312 308 308 303 286 277 279 285 298 303 317 321 327 320 289 284